Weather History for KUXL - August, 2013

Change the Weather History Date:

Saturday, August 10, 2013

  Actual Average (KLCH) Record (KLCH)
Temperature  
Mean Temperature 85 °F 83 °F  
Max Temperature 94 °F 92 °F 102 °F (1962)
Min Temperature 76 °F 74 °F 62 °F (1989)
Degree Days  
Heating Degree Days 0 0  
Month to date heating degree days 0  
Since 1 June heating degree days 0  
Since 1 July heating degree days 0  
Cooling Degree Days 20 18  
Month to date cooling degree days 180  
Year to date cooling degree days 1751  
Since 1 June cooling degree days 1213  
Growing Degree Days 35 (Base 50)    
Moisture  
Dew Point 76 °F    
Average Humidity 86    
Maximum Humidity 98    
Minimum Humidity 49    
Precipitation  
Precipitation 0.32 in 0.15 in 2.02 in (1913)
Month to date precipitation 1.67  
Year to date precipitation 35.03  
Snow  
Snow 0.00 in 0.00 in 0.00 in ()
Month to date snowfall 0.0  
Since 1 June snowfall 0.0  
Since 1 July snowfall 0.0  
Snow Depth -    
Sea Level Pressure  
Sea Level Pressure 30.02 in    
Wind  
Wind Speed 3 mph (East)    
Max Wind Speed 25 mph    
Max Gust Speed 34 mph    
Visibility 10 miles    
Events Rain , Thunderstorm    
T = Trace of Precipitation, MM = Missing Value Source: NWS Daily Summary

Daily Weather History Graph

Daily Weather History Graph

Search for Another Location

Airport or City:

Trip Planner

Search our weather history database for the weather conditions in past years. The results will help you decide how hot, cold, wet, or windy it might be!

Date:

Astronomy

Aug. 10, 2013 Rise Set
Actual Time 6:37 AM CDT 7:59 PM CDT
Civil Twilight 6:12 AM CDT 8:24 PM CDT
Nautical Twilight 5:42 AM CDT 8:54 PM CDT
Astronomical Twilight 5:10 AM CDT 9:26 PM CDT
Moon 10:03 AM CDT (8/10) 10:04 PM CDT (8/10)
Length of Visible Light 14h 12m
Length of Day
13h 21m
Waxing Crescent, 14% of the Moon is Illuminated
Aug 10
Waxing Crescent
Aug 14
First Quarter
Aug 20
Full
Aug 28
Last Quarter
Sep 5
New

Hourly Weather History & Observations

Time (CDT) Temp. Heat Index Dew Point Humidity Pressure Visibility Wind Dir Wind Speed Gust Speed Precip Events Conditions
12:15 AM 81.1 °F 88.4 °F 77.2 °F 88% 30.00 in 10.0 mi East 4.6 mph - N/A   Clear
12:35 AM 80.6 °F 87.3 °F 77.4 °F 90% 30.00 in 10.0 mi East 3.5 mph - N/A   Clear
12:55 AM 80.4 °F 86.8 °F 77.4 °F 90% 29.99 in 10.0 mi ENE 3.5 mph - N/A   Clear
1:15 AM 79.9 °F - 77.2 °F 91% 29.99 in 10.0 mi East 3.5 mph - N/A   Clear
1:35 AM 79.7 °F - 77.0 °F 91% 29.99 in 10.0 mi Calm Calm - N/A   Clear
1:55 AM 79.7 °F - 77.0 °F 91% 29.99 in 10.0 mi ENE 3.5 mph - N/A   Clear
2:15 AM 79.7 °F - 77.0 °F 91% 29.99 in 10.0 mi ENE 3.5 mph - N/A   Clear
2:35 AM 79.7 °F - 77.0 °F 91% 29.98 in 10.0 mi ENE 3.5 mph - N/A   Clear
2:55 AM 79.3 °F - 77.0 °F 93% 29.98 in 10.0 mi East 3.5 mph - N/A   Clear
3:15 AM 79.2 °F - 77.0 °F 93% 29.98 in 10.0 mi East 4.6 mph - N/A   Clear
3:35 AM 79.3 °F - 77.0 °F 93% 29.98 in 10.0 mi East 4.6 mph - N/A   Clear
3:55 AM 79.5 °F - 77.0 °F 92% 29.98 in 10.0 mi East 6.9 mph - N/A   Scattered Clouds
4:15 AM 79.2 °F - 76.8 °F 92% 29.98 in 10.0 mi East 5.8 mph - N/A   Scattered Clouds
4:35 AM 78.8 °F - 76.5 °F 92% 29.99 in 10.0 mi East 5.8 mph - N/A   Scattered Clouds
4:55 AM 78.6 °F - 76.5 °F 93% 29.99 in 10.0 mi Calm Calm - N/A   Clear
5:15 AM 78.3 °F - 76.3 °F 94% 29.98 in 10.0 mi Calm Calm - N/A   Clear
5:35 AM 78.3 °F - 76.5 °F 94% 29.99 in 10.0 mi Calm Calm - N/A Thunderstorm Clear
5:55 AM 78.1 °F - 76.3 °F 94% 30.00 in 10.0 mi Calm Calm - N/A   Clear
6:15 AM 78.1 °F - 76.5 °F 95% 30.00 in 10.0 mi Calm Calm - N/A   Scattered Clouds
6:35 AM 78.8 °F - 76.6 °F 93% 30.01 in 10.0 mi East 3.5 mph - N/A Thunderstorm Mostly Cloudy
6:55 AM 78.8 °F - 76.6 °F 93% 30.00 in 10.0 mi Calm Calm - N/A   Scattered Clouds
7:15 AM 79.0 °F - 77.2 °F 94% 30.01 in 10.0 mi East 5.8 mph - N/A Thunderstorm Clear
7:35 AM 80.1 °F 86.1 °F 77.5 °F 92% 30.02 in 10.0 mi East 5.8 mph - N/A Thunderstorm Clear
7:55 AM 81.0 °F 88.6 °F 78.1 °F 91% 30.02 in 10.0 mi East 4.6 mph - N/A Thunderstorm Scattered Clouds
8:15 AM 81.7 °F 90.2 °F 78.1 °F 89% 30.03 in 10.0 mi ESE 8.1 mph - N/A Thunderstorm Scattered Clouds
8:35 AM 83.1 °F 93.3 °F 78.1 °F 85% 30.04 in 10.0 mi ESE 9.2 mph - N/A   Clear
8:55 AM 83.1 °F 92.9 °F 77.7 °F 84% 30.04 in 10.0 mi SE 8.1 mph - N/A   Scattered Clouds
9:15 AM 83.5 °F 93.6 °F 77.7 °F 83% 30.05 in 10.0 mi ESE 3.5 mph - N/A   Scattered Clouds
9:35 AM 83.8 °F 92.1 °F 75.6 °F 76% 30.05 in 10.0 mi SE 5.8 mph - N/A   Scattered Clouds
9:55 AM 83.1 °F 91.3 °F 76.1 °F 79% 30.06 in 10.0 mi ESE 3.5 mph - N/A Rain Light Rain
10:15 AM 84.2 °F 92.3 °F 75.0 °F 74% 30.05 in 10.0 mi Calm Calm - N/A   Clear
10:35 AM 86.9 °F 95.4 °F 74.5 °F 66% 30.06 in 10.0 mi SE 5.8 mph - N/A   Clear
10:55 AM 87.8 °F 97.1 °F 74.7 °F 65% 30.06 in 10.0 mi Calm Calm - N/A   Clear
11:15 AM 88.7 °F 97.7 °F 74.3 °F 62% 30.07 in 10.0 mi Calm Calm - N/A   Clear
11:35 AM 88.7 °F 98.2 °F 74.7 °F 63% 30.07 in 10.0 mi Calm Calm - N/A   Clear
11:55 AM 90.3 °F 100.4 °F 74.8 °F 60% 30.06 in 10.0 mi Calm Calm - N/A   Scattered Clouds
12:15 PM 91.0 °F 100.4 °F 73.8 °F 57% 30.05 in 10.0 mi Calm Calm - N/A   Scattered Clouds
12:35 PM 90.1 °F 98.3 °F 72.9 °F 57% 30.05 in 10.0 mi Calm Calm - N/A   Scattered Clouds
12:55 PM 90.5 °F 99.2 °F 73.2 °F 57% 30.04 in 10.0 mi West 4.6 mph - N/A   Scattered Clouds
1:15 PM 93.2 °F 102.4 °F 73.4 °F 52% 30.03 in 10.0 mi WNW 3.5 mph - N/A   Clear
1:35 PM 94.3 °F 102.9 °F 72.5 °F 49% 30.03 in 10.0 mi SSE 3.5 mph - N/A Thunderstorm Clear
1:55 PM 87.6 °F 92.7 °F 70.3 °F 56% 30.04 in 10.0 mi SE 25.3 mph 34.5 mph N/A Thunderstorm Scattered Clouds
2:15 PM 82.9 °F 88.5 °F 72.5 °F 71% 30.04 in 10.0 mi ESE 18.4 mph 27.6 mph 0.01 in Rain , Thunderstorm Light Thunderstorms and Rain
2:35 PM 79.3 °F - 72.1 °F 79% 30.01 in 3.0 mi South 4.6 mph 9.2 mph 0.25 in Rain , Thunderstorm Light Thunderstorms and Rain
2:55 PM 81.3 °F 87.2 °F 74.5 °F 80% 30.04 in 10.0 mi Calm Calm - 0.25 in Thunderstorm Scattered Clouds
3:15 PM 80.1 °F 84.5 °F 73.6 °F 81% 30.04 in 10.0 mi ENE 5.8 mph - N/A Thunderstorm Thunderstorm
3:35 PM 78.8 °F - 74.3 °F 86% 30.02 in 10.0 mi ENE 8.1 mph - N/A   Light Drizzle
3:55 PM 77.9 °F - 74.3 °F 89% 30.03 in 10.0 mi Calm Calm - N/A   Clear
4:15 PM 78.1 °F - 74.7 °F 89% 30.02 in 7.0 mi NE 3.5 mph - 0.01 in Rain , Thunderstorm Light Thunderstorms and Rain
4:35 PM 77.9 °F - 75.7 °F 93% 30.03 in 7.0 mi NW 3.5 mph - 0.04 in Rain Light Rain
4:55 PM 78.6 °F - 76.3 °F 92% 30.04 in 10.0 mi NNW 3.5 mph - 0.07 in Rain Light Rain
5:15 PM 78.8 °F - 77.0 °F 94% 30.04 in 10.0 mi NW 4.6 mph - N/A   Scattered Clouds
5:35 PM 79.3 °F - 77.0 °F 93% 30.03 in 10.0 mi Calm Calm - N/A   Clear
5:55 PM 79.9 °F - 77.4 °F 92% 30.01 in 10.0 mi Calm Calm - N/A   Clear
6:15 PM 79.9 °F - 77.5 °F 93% 30.01 in 10.0 mi Calm Calm - N/A   Clear
6:35 PM 80.4 °F 87.2 °F 77.9 °F 92% 30.00 in 10.0 mi Calm Calm - N/A   Clear
6:55 PM 80.6 °F 87.9 °F 78.3 °F 93% 30.00 in 10.0 mi Calm Calm - N/A   Clear
7:15 PM 80.8 °F 87.6 °F 77.4 °F 89% 29.99 in 10.0 mi SE 3.5 mph - N/A   Clear
7:35 PM 80.6 °F 86.9 °F 76.8 °F 88% 29.99 in 10.0 mi Calm Calm - N/A   Clear
7:55 PM 79.5 °F - 77.0 °F 92% 30.00 in 10.0 mi Calm Calm - N/A   Clear
8:15 PM 79.2 °F - 76.3 °F 91% 30.01 in 10.0 mi Calm Calm - N/A   Clear
8:35 PM 78.3 °F - 76.1 °F 93% 30.02 in 10.0 mi Calm Calm - N/A   Clear
8:55 PM 77.4 °F - 76.1 °F 96% 30.03 in 10.0 mi Calm Calm - N/A   Clear
9:15 PM 77.5 °F - 76.1 °F 95% 30.04 in 10.0 mi Calm Calm - N/A   Clear
9:35 PM 77.2 °F - 76.1 °F 96% 30.05 in 10.0 mi Calm Calm - N/A   Clear
9:55 PM 77.0 °F - 76.1 °F 97% 30.05 in 10.0 mi Calm Calm - N/A   Clear
10:15 PM 77.0 °F - 75.6 °F 95% 30.04 in 10.0 mi Calm Calm - N/A   Clear
10:35 PM 77.0 °F - 75.9 °F 96% 30.04 in 10.0 mi Calm Calm - N/A   Clear
10:55 PM 76.5 °F - 75.4 °F 96% 30.05 in 10.0 mi Calm Calm - N/A   Clear
11:15 PM 76.5 °F - 75.6 °F 97% 30.05 in 10.0 mi Calm Calm - N/A   Clear
11:35 PM 76.1 °F - 75.2 °F 97% 30.06 in 10.0 mi Calm Calm - N/A   Clear
11:55 PM 77.2 °F - 76.5 °F 98% 30.05 in 10.0 mi NNE 3.5 mph - N/A   Clear